Temperature
23 22 22 22 27 29 27 28 28 28 28 27 26 26 27 27 26 24 20 20 20 20 19 20 19 19 19 19 19 19 19 19 19 19 19 19 19 19 19 19 19 19 19 19 19 19 19 19 19
22 23 22 25 29 28 27 28 28 28 27 26 26 26 26 25 22 20 19 19 19 19 19 19 19 19 19 19 19 19 19 19 19 19 19 19 19 19 19 19 19 19 19 19 19 19 19 19 19
23 23 24 29 29 28 27 28 28 28 26 27 26 25 25 23 21 20 19 19 19 19 19 19 20 20 20 19 19 19 19 19 19 19 19 19 19 19 19 19 19 19 19 18 18 18 18 18 19
23 24 27 29 28 28 28 29 28 28 27 26 26 26 24 21 21 20 19 19 19 19 18 19 20 20 20 20 19 19 19 19 19 19 19 19 19 19 19 19 19 19 19 18 18 18 18 18 18
23 27 29 28 28 28 29 28 28 29 28 26 26 26 23 20 20 20 19 19 19 19 18 19 20 20 20 20 19 19 19 19 19 19 19 19 19 19 19 19 19 19 18 18 18 18 18 18 18
26 28 28 27 27 28 29 28 28 28 27 26 26 26 23 20 20 20 19 19 19 19 19 18 20 20 20 19 19 19 19 19 19 19 19 19 19 19 19 19 19 18 18 18 18 18 18 18 18
27 28 28 27 27 27 28 27 28 28 27 25 25 26 23 20 19 19 19 19 19 19 19 18 19 19 19 19 19 19 19 19 19 19 19 19 19 19 19 19 19 18 18 18 18 18 18 18 18
26 29 28 27 27 26 26 27 25 26 25 23 23 25 23 20 19 19 19 19 19 19 19 19 18 18 18 18 19 19 19 19 19 19 19 19 18 18 18 18 18 18 18 18 18 18 18 18 18
26 29 27 27 26 25 25 26 24 24 23 22 21 21 21 19 19 19 18 18 18 18 18 19 19 18 18 18 18 19 19 19 18 18 18 18 18 17 18 17 18 18 18 18 18 18 18 18 18
28 28 26 26 26 24 23 23 23 23 22 21 20 19 19 19 19 19 19 19 18 18 18 18 18 18 18 18 18 18 18 18 18 18 18 18 17 17 17 17 18 18 18 18 18 18 18 18 17
27 26 26 25 24 24 23 20 20 21 20 18 18 17 18 18 18 18 18 18 18 18 18 18 18 18 18 18 18 18 18 18 18 18 17 17 17 17 17 17 17 17 18 17 18 18 17 17 18
26 24 24 24 23 23 22 21 18 17 16 16 16 16 17 17 17 17 17 17 17 17 18 18 18 18 18 18 18 18 18 18 18 18 18 17 17 17 17 17 17 17 17 17 17 17 17 17 18
26 24 22 21 21 20 20 19 17 15 15 15 15 16 16 16 16 16 16 16 17 17 17 18 18 18 18 18 18 18 18 18 18 18 18 17 17 17 17 17 17 17 17 17 17 17 18 18 18
25 23 23 22 21 20 19 18 17 15 15 15 15 15 15 15 15 15 16 16 16 16 16 17 17 18 18 18 18 18 18 18 18 18 18 17 17 17 17 17 17 17 17 17 17 18 18 18 18
24 25 23 22 22 21 21 18 16 15 15 15 15 15 15 15 15 15 15 15 15 16 16 16 17 17 18 18 18 18 18 18 18 18 18 17 17 17 17 17 17 17 17 17 17 18 18 18 18
26 26 24 22 22 21 22 17 16 15 16 15 15 15 15 15 15 14 14 15 15 15 16 16 16 17 17 18 18 18 18 18 18 18 18 18 17 17 17 17 17 17 17 17 17 17 17 18 18
26 26 24 22 21 21 21 16 16 15 16 15 15 15 15 15 15 14 14 14 14 15 15 15 16 16 17 17 18 18 18 18 18 18 18 18 17 17 17 17 17 17 17 17 17 17 18 18 18
25 25 24 22 20 20 19 16 16 16 16 16 16 16 15 15 14 14 14 14 14 14 14 14 15 16 16 16 17 17 18 18 18 18 18 18 18 17 17 17 17 17 17 17 17 17 17 18 18
24 24 23 20 19 19 18 17 17 16 16 16 16 16 15 15 14 14 14 13 13 14 14 14 14 15 15 16 16 17 17 17 17 17 17 18 17 17 17 17 17 17 17 17 17 17 17 17 18
24 23 22 20 19 19 18 17 17 17 16 15 15 15 15 14 14 14 13 13 13 13 13 13 14 14 14 15 15 16 16 16 17 17 17 17 17 17 17 17 17 17 17 17 17 17 17 17 17
22 22 21 20 19 19 18 17 18 17 17 16 15 15 14 14 13 13 13 12 12 12 13 13 13 13 14 14 14 15 15 16 16 16 17 17 17 17 17 17 17 17 17 17 17 17 17 17 17
21 20 20 19 20 19 19 19 17 17 17 16 15 15 14 13 13 13 12 12 12 12 12 12 12 13 13 13 14 14 15 15 15 15 16 16 16 17 17 17 17 17 17 17 17 17 17 17 17
20 19 19 20 20 20 19 20 18 17 16 16 15 14 14 13 13 12 12 12 11 11 12 12 12 12 13 13 13 14 14 14 15 15 15 16 16 16 16 17 17 17 17 17 17 17 17 17 17
19 19 19 20 20 20 18 19 17 16 15 15 15 14 14 13 13 12 12 11 11 11 12 12 12 12 13 13 13 13 14 14 14 15 15 15 15 16 16 16 16 16 16 16 17 16 17 17 16
20 21 21 21 20 19 18 17 16 16 16 15 15 14 14 13 13 12 12 11 11 11 11 12 12 12 12 12 13 13 13 13 14 14 14 15 15 15 16 16 16 16 16 16 16 16 16 16 16
19 20 21 21 21 19 17 17 16 16 15 15 14 14 14 13 13 12 12 11 11 11 11 11 12 12 12 12 12 13 13 13 13 14 14 14 15 15 15 15 16 16 16 16 16 16 16 16 16
20 19 19 20 19 19 18 17 17 16 16 15 15 14 14 13 13 12 12 12 11 11 11 11 11 11 12 12 12 12 12 13 13 13 14 14 14 14 15 15 15 15 15 16 15 15 15 15 15
18 18 19 19 19 19 18 17 16 16 16 16 15 14 14 13 13 13 12 11 11 11 11 11 11 11 11 12 12 12 12 13 13 13 13 13 14 14 14 14 14 15 15 15 15 15 15 15 15
18 18 18 18 18 18 17 17 16 16 15 15 15 14 14 13 13 13 12 12 12 12 11 11 11 11 11 11 12 12 12 12 12 13 13 13 13 13 13 14 14 14 14 14 14 14 14 14 14
18 17 18 18 18 17 17 17 16 16 15 15 15 14 14 14 13 13 12 12 12 12 11 11 11 11 11 11 11 12 12 12 12 12 12 13 13 13 13 13 13 13 13 13 14 14 14 14 14
Wind_Speed
7 7 4 3 2 7 12 8 6 5 4 5 4 1 2 3 3 4 5 13 15 16 16 17 16 15 14 13 13 12 12 11 11 10 9 9 8 8 7 6 5 4 4 4 4 5 5 5 5
6 6 3 3 5 10 11 7 8 7 6 4 4 3 3 5 5 5 9 13 16 16 16 16 16 15 14 13 12 12 11 11 10 10 9 9 8 7 7 6 5 5 4 4 4 4 5 5 5
7 4 2 2 8 10 10 7 7 7 5 4 4 5 4 5 4 5 9 15 15 15 14 16 16 14 13 13 12 12 11 10 10 9 9 9 8 7 6 6 5 5 4 4 3 4 4 5 5
4 3 2 5 10 7 5 5 4 4 5 7 5 6 6 6 3 7 13 15 15 13 13 15 14 14 13 12 12 12 11 10 10 10 9 8 8 7 6 6 5 5 4 4 3 3 4 4 4
3 2 4 6 7 6 5 4 3 5 6 7 7 7 7 7 7 11 13 13 13 13 12 14 13 13 12 12 11 11 11 11 10 10 9 8 8 7 6 6 5 5 5 4 3 3 4 4 4
2 1 4 6 6 5 6 4 4 6 8 8 7 6 6 6 8 10 11 10 11 11 11 13 13 11 11 11 11 11 11 11 10 10 9 8 8 7 6 6 5 5 4 4 4 4 4 4 4
1 2 4 5 5 6 7 5 8 8 11 11 8 6 6 7 7 8 8 7 7 8 9 9 12 12 11 10 10 11 11 11 11 10 9 8 8 7 7 6 5 5 4 4 4 4 5 4 4
1 2 4 3 4 5 6 7 8 11 10 10 10 7 5 7 7 7 6 5 5 7 7 8 8 9 11 12 12 11 11 12 11 11 10 9 9 8 7 8 7 5 5 5 5 5 5 5 4
2 2 3 3 3 5 7 7 7 9 12 13 12 12 9 9 8 6 5 3 3 4 5 6 7 7 7 7 9 12 12 12 12 12 12 11 11 11 11 8 7 6 5 5 5 5 5 5 6
1 2 5 5 5 8 13 11 7 7 13 13 14 14 12 9 8 6 4 2 1 3 5 6 7 7 8 8 8 9 11 12 13 11 12 12 9 7 6 10 7 6 6 6 5 5 7 8 7
4 5 7 8 8 9 10 15 15 8 11 11 11 11 11 12 12 10 9 8 7 5 4 5 7 8 9 7 8 8 7 8 11 11 11 10 8 8 8 7 10 10 10 9 9 9 8 7 5
7 11 8 6 7 8 9 8 13 18 11 11 11 12 13 14 13 12 11 10 10 9 9 8 7 8 9 10 8 8 8 8 8 10 11 9 7 7 7 7 7 7 7 6 7 7 7 7 7
9 9 14 17 19 18 18 17 14 15 12 12 13 15 15 14 13 12 11 11 11 11 11 11 10 8 8 8 8 9 9 9 10 9 10 11 8 8 7 7 7 8 7 7 7 8 7 7 7
10 13 12 11 12 12 17 15 9 11 11 12 14 14 14 14 13 12 12 12 11 11 11 11 10 9 8 7 8 9 10 10 10 9 11 12 10 9 7 8 7 8 8 8 8 8 6 7 6
13 13 11 8 6 5 6 13 11 10 10 12 13 12 12 12 12 12 11 11 10 10 10 10 10 9 8 8 8 8 10 10 8 9 12 12 12 11 10 8 8 8 9 10 8 8 7 6 6
6 5 4 8 5 3 2 7 10 9 10 12 12 12 12 12 12 12 12 11 11 10 10 9 8 9 8 8 8 7 8 8 8 9 11 13 13 13 11 9 8 9 8 8 7 7 7 8 7
4 3 2 5 9 4 6 8 8 9 10 11 11 12 12 12 13 13 13 12 11 10 10 10 9 9 9 8 6 7 7 7 7 8 9 11 13 14 12 9 9 10 8 8 8 9 8 8 7
2 2 1 4 7 9 10 9 8 9 11 11 11 12 12 14 14 13 13 12 11 10 10 9 9 8 8 7 6 5 6 6 6 6 8 10 11 13 12 9 10 10 8 8 9 9 8 7 7
2 2 1 4 4 5 9 9 8 9 11 12 13 13 14 14 14 13 13 13 12 11 11 11 10 9 7 6 6 5 5 5 5 5 8 10 11 12 12 10 10 10 10 10 11 9 10 9 8
0 1 3 5 4 3 7 7 7 8 11 12 13 14 15 16 16 16 15 14 14 13 12 12 11 10 9 6 6 5 6 6 5 5 7 11 12 12 11 11 9 10 9 11 11 10 9 9 8
2 2 1 3 5 5 4 4 4 6 9 12 13 14 14 15 16 17 16 15 15 14 13 11 11 11 9 9 7 6 5 5 5 6 7 9 11 12 11 10 10 10 10 10 11 11 11 10 10
0 3 1 5 6 3 4 3 4 6 9 13 15 15 15 15 16 16 16 16 16 15 13 13 12 10 9 8 7 7 6 6 6 6 6 7 9 10 11 11 12 12 11 11 12 12 10 10 9
3 2 3 5 5 4 1 4 3 6 11 14 15 15 15 15 15 15 16 16 15 14 13 12 11 10 8 7 7 7 6 6 6 6 7 7 7 8 10 11 11 12 10 11 12 11 11 10 10
0 4 5 5 5 3 2 4 3 7 12 14 14 15 15 16 15 15 15 15 14 14 12 12 11 10 8 7 6 6 7 7 6 6 5 5 4 5 8 9 10 11 10 11 10 11 11 10 10
2 4 3 5 4 1 2 2 3 7 9 11 13 14 15 15 15 15 16 16 15 14 13 12 12 11 9 8 7 6 6 6 5 4 4 3 3 3 5 6 8 9 10 10 9 10 11 11 10
3 4 4 4 2 2 1 1 3 5 7 9 10 12 13 14 14 15 15 14 13 14 13 13 12 11 10 9 8 7 6 4 4 4 3 2 1 1 3 4 5 7 8 9 9 9 11 10 10
2 3 4 2 0 1 2 1 2 3 7 9 11 12 13 14 14 14 14 13 13 14 13 12 11 10 11 10 9 8 7 7 6 6 4 3 3 1 0 1 2 3 5 7 8 7 9 9 9
5 2 2 2 2 1 1 0 3 7 9 10 11 12 13 13 14 14 12 12 12 12 12 12 12 11 11 11 10 7 8 8 7 6 6 6 6 5 3 2 1 2 2 4 6 6 7 8 7
2 1 1 1 2 3 1 2 3 5 7 9 10 11 11 12 13 12 12 11 11 11 12 12 13 12 12 11 10 9 9 8 8 8 8 7 7 7 6 5 4 4 3 2 3 4 5 7 7
3 3 2 2 1 1 1 2 2 2 4 6 8 9 10 11 11 11 11 11 11 12 12 12 12 12 12 11 11 10 10 9 9 9 9 8 8 8 7 7 6 5 4 3 3 3 4 5 6
Wind_Direction
197 183 190 223 187 89 78 73 67 66 53 53 61 56 13 22 -0 56 115 152 146 147 146 149 151 148 145 142 140 138 137 137 137 137 138 140 141 141 141 140 139 138 137 136 133 131 130 127 122
168 163 213 240 94 88 77 67 67 54 66 76 65 54 60 58 43 88 135 148 150 148 150 150 149 150 147 146 144 141 140 141 140 139 140 140 141 141 141 141 140 138 137 132 127 130 130 124 117
164 204 268 86 75 74 76 61 65 73 56 30 52 48 43 43 69 116 137 151 152 150 150 144 152 153 152 151 149 146 145 146 145 144 144 144 144 144 143 140 137 135 134 129 126 129 129 126 121
181 219 225 92 85 70 56 58 67 77 60 44 48 67 68 46 65 117 139 153 152 152 152 148 157 157 157 157 155 154 154 154 154 152 152 151 150 150 149 147 142 136 134 128 118 122 130 131 127
231 244 122 100 85 70 52 44 58 48 50 46 44 67 70 54 84 123 143 154 157 158 157 154 161 162 164 164 163 161 162 163 162 161 161 159 157 153 151 149 144 139 135 129 122 123 125 127 124
239 221 123 101 87 72 55 51 59 56 59 51 42 61 68 77 104 129 144 159 164 163 164 159 163 171 172 172 172 172 172 171 170 169 169 169 166 162 159 155 149 140 131 124 120 120 122 122 125
289 112 110 110 104 76 36 43 48 55 55 38 18 54 92 96 103 127 142 156 166 171 175 178 175 180 183 186 187 186 183 181 180 179 178 178 176 172 170 166 163 154 144 134 128 123 121 119 123
333 146 133 114 104 68 29 67 50 43 56 36 20 34 76 104 116 122 129 147 170 185 191 196 196 196 194 193 195 200 195 191 189 187 188 188 185 184 182 187 170 170 163 149 138 130 124 121 120
274 176 120 83 88 68 37 71 56 57 63 51 41 38 65 99 111 113 118 141 181 210 219 220 218 218 224 221 195 203 204 201 198 197 195 202 206 197 192 182 157 179 174 163 152 143 137 146 141
8 92 78 64 81 95 64 56 38 59 50 39 38 46 63 78 77 74 63 46 282 251 247 244 243 237 232 233 227 223 215 207 210 211 201 211 215 213 214 140 177 193 186 179 170 163 179 210 178
58 70 88 77 92 103 86 62 40 57 41 19 21 40 52 56 51 45 37 24 9 347 324 284 267 254 249 240 239 236 231 225 224 222 216 220 218 212 214 194 188 197 199 199 175 200 203 203 188
89 61 71 72 81 77 75 78 59 48 40 31 42 47 51 49 43 35 30 23 15 11 360 342 315 284 261 251 247 244 240 232 231 228 227 221 222 226 218 215 210 204 205 208 212 216 200 206 199
102 96 83 84 83 84 84 81 74 49 43 46 50 48 46 43 39 34 28 22 15 8 359 353 344 325 300 274 259 252 247 245 239 236 239 229 226 229 223 219 213 219 214 204 214 218 204 211 209
107 110 100 89 90 85 82 72 61 37 39 47 48 45 41 36 28 25 20 15 9 2 354 348 344 335 320 295 271 260 256 249 252 244 241 239 233 235 230 230 218 221 219 216 213 213 205 212 210
127 117 97 62 85 117 96 60 43 30 40 45 42 40 36 32 26 20 11 4 359 354 348 345 340 341 331 315 294 276 264 256 248 247 248 245 240 238 234 234 226 219 214 214 215 208 211 213 207
177 179 127 54 38 42 131 72 40 32 41 42 34 31 26 25 19 14 6 358 352 346 343 340 338 338 333 322 306 289 274 265 252 248 249 251 245 241 239 235 233 227 217 213 207 213 209 208 211
207 235 138 84 35 60 89 89 52 37 40 37 28 21 15 12 10 6 359 354 347 340 337 336 336 333 328 319 303 291 281 266 256 251 249 251 249 246 238 235 232 224 215 212 211 210 213 214 213
305 288 99 83 58 82 94 95 67 44 37 31 21 13 9 5 1 357 353 350 345 340 334 331 328 326 324 318 309 293 276 265 253 251 254 254 252 250 242 234 233 227 217 212 213 209 215 223 217
344 306 103 97 109 87 100 96 72 45 33 23 15 8 3 358 353 354 350 347 344 342 338 332 327 325 323 318 313 306 289 276 264 249 249 251 250 248 241 235 229 223 219 216 213 211 212 217 216
337 227 132 117 115 126 122 99 75 47 31 20 10 3 359 353 350 352 351 348 344 340 337 330 326 324 322 313 303 289 288 280 267 257 248 243 244 243 239 236 230 225 222 221 217 214 215 213 211
58 349 203 165 137 146 168 151 71 47 29 20 13 5 0 355 348 348 347 345 343 340 335 329 323 318 316 313 304 299 290 276 264 254 249 246 242 239 234 232 232 229 222 219 216 212 214 213 213
100 27 257 194 201 169 243 234 75 22 16 13 8 3 359 354 350 348 345 345 343 341 336 330 324 318 315 312 303 300 291 286 280 271 260 255 245 240 234 231 230 227 224 222 219 215 216 215 214
9 340 221 202 207 189 298 278 82 18 4 1 359 358 355 354 351 349 349 346 345 344 340 333 329 325 322 317 309 300 294 291 287 278 267 260 246 235 230 227 228 226 223 225 222 217 215 215 216
66 152 142 176 209 214 3 306 39 16 353 348 351 353 354 355 354 352 350 349 349 348 347 345 338 336 334 328 321 312 309 309 302 287 270 257 247 236 229 224 223 222 221 220 218 214 213 215 219
267 245 221 206 213 113 30 323 41 11 352 346 345 348 353 356 357 355 353 351 350 351 352 350 347 345 345 340 338 334 324 319 316 305 280 261 246 239 237 226 221 219 219 216 212 209 211 211 213
15 316 314 308 327 117 157 13 50 8 352 351 351 353 357 357 357 356 354 354 353 352 353 355 352 353 352 349 349 348 344 336 336 338 335 323 290 258 244 230 225 221 215 212 209 210 210 207 207
345 34 350 319 21 212 117 102 119 9 5 5 4 1 2 359 358 358 358 359 359 359 359 356 356 1 360 359 359 360 359 3 358 356 5 3 357 347 283 192 191 201 204 203 200 205 205 204 207
32 7 262 280 285 277 149 74 1 359 359 358 359 358 358 357 356 359 1 1 2 3 4 6 12 11 7 7 8 9 7 10 11 15 22 26 24 24 30 53 104 140 163 190 199 198 197 196 197
33 59 34 48 332 313 311 80 29 352 348 346 348 349 352 352 353 355 359 359 2 6 11 13 14 15 15 13 12 18 20 22 23 26 26 28 33 35 40 47 57 77 94 132 167 177 182 187 189
33 20 314 310 72 337 301 103 93 330 334 339 343 350 352 351 353 357 358 1 6 11 14 16 16 17 17 15 18 23 26 28 32 32 28 31 36 38 40 46 52 58 67 80 104 135 166 180 181
Height
1525 1525 1525 1527 1525 1524 1531 1529 1524 1525 1524 1528 1528 1528 1527 1528 1531 1539 1541 1541 1544 1547 1549 1551 1553 1555 1556 1558 1559 1560 1561 1562 1563 1563 1564 1565 1565 1566 1566 1567 1567 1567 1568 1568 1568 1568 1568 1568 1569
1527 1526 1528 1528 1523 1533 1536 1527 1526 1527 1529 1530 1531 1531 1531 1534 1538 1539 1540 1543 1546 1549 1551 1553 1554 1556 1558 1559 1560 1561 1562 1563 1564 1564 1565 1565 1566 1566 1567 1567 1567 1568 1568 1568 1568 1568 1569 1569 1569
1527 1527 1530 1524 1526 1533 1535 1528 1527 1530 1532 1531 1532 1533 1534 1538 1540 1541 1542 1544 1548 1551 1553 1554 1556 1557 1559 1560 1561 1562 1563 1564 1564 1565 1566 1566 1566 1567 1567 1567 1568 1568 1568 1568 1568 1569 1569 1569 1570
1529 1531 1530 1526 1532 1531 1530 1528 1530 1531 1532 1533 1533 1535 1539 1542 1543 1544 1544 1547 1550 1553 1555 1555 1557 1558 1560 1561 1562 1563 1563 1564 1565 1565 1566 1566 1567 1567 1567 1568 1568 1568 1568 1568 1568 1569 1569 1569 1570
1530 1530 1527 1532 1533 1530 1530 1531 1532 1531 1533 1535 1535 1537 1542 1545 1544 1545 1547 1550 1553 1555 1556 1557 1558 1559 1560 1561 1562 1563 1564 1564 1565 1565 1566 1567 1567 1567 1567 1567 1568 1568 1568 1568 1568 1568 1569 1569 1570
1532 1528 1531 1537 1535 1532 1532 1533 1533 1533 1536 1538 1538 1539 1545 1547 1548 1549 1550 1553 1555 1557 1558 1558 1558 1559 1561 1562 1562 1563 1564 1564 1565 1565 1566 1566 1567 1567 1567 1567 1567 1567 1567 1568 1568 1568 1569 1569 1570
1532 1528 1533 1535 1537 1535 1536 1536 1535 1536 1539 1542 1543 1542 1547 1550 1550 1551 1553 1554 1556 1558 1559 1560 1560 1559 1560 1561 1562 1562 1563 1564 1564 1565 1565 1566 1566 1566 1566 1566 1566 1567 1567 1567 1567 1568 1568 1569 1570
1532 1530 1534 1535 1538 1540 1540 1539 1541 1541 1545 1547 1546 1545 1549 1552 1552 1553 1554 1555 1557 1558 1559 1560 1561 1561 1561 1561 1561 1561 1562 1563 1563 1564 1564 1565 1565 1565 1565 1566 1566 1566 1566 1566 1567 1567 1568 1569 1570
1532 1531 1536 1538 1539 1543 1543 1542 1545 1547 1549 1550 1551 1551 1552 1553 1554 1555 1555 1556 1557 1558 1559 1560 1560 1560 1561 1561 1560 1560 1561 1561 1562 1562 1563 1564 1565 1566 1565 1565 1565 1565 1565 1566 1566 1567 1568 1569 1570
1532 1533 1540 1541 1541 1545 1547 1547 1549 1550 1551 1554 1555 1555 1555 1555 1555 1556 1557 1557 1557 1558 1558 1559 1559 1559 1559 1559 1559 1559 1559 1560 1560 1561 1562 1563 1564 1565 1566 1564 1564 1564 1564 1565 1566 1567 1568 1570 1572
1534 1538 1541 1544 1545 1546 1548 1553 1554 1553 1557 1561 1560 1559 1557 1556 1556 1556 1556 1556 1556 1557 1557 1557 1557 1558 1558 1557 1557 1557 1558 1558 1559 1560 1560 1561 1562 1563 1563 1564 1563 1564 1564 1566 1565 1567 1569 1571 1572
1539 1545 1544 1547 1548 1549 1550 1555 1560 1562 1567 1566 1563 1561 1559 1558 1557 1557 1556 1556 1555 1555 1554 1554 1555 1555 1555 1555 1555 1555 1555 1555 1556 1557 1558 1559 1560 1561 1563 1563 1564 1564 1564 1565 1566 1567 1569 1570 1571
1540 1548 1550 1552 1553 1555 1556 1560 1564 1569 1570 1568 1565 1563 1561 1560 1559 1558 1557 1556 1554 1553 1552 1552 1551 1551 1552 1552 1552 1552 1553 1553 1554 1554 1555 1556 1557 1558 1560 1561 1561 1562 1563 1563 1564 1566 1568 1569 1570
1544 1548 1551 1554 1555 1558 1559 1564 1567 1573 1572 1570 1567 1565 1564 1562 1561 1559 1557 1556 1554 1552 1550 1549 1549 1548 1548 1548 1548 1549 1549 1550 1550 1551 1552 1553 1554 1555 1557 1558 1559 1560 1561 1562 1563 1565 1566 1567 1569
1546 1548 1552 1556 1556 1558 1558 1568 1574 1575 1573 1571 1569 1568 1566 1564 1562 1560 1557 1555 1553 1551 1549 1547 1545 1545 1544 1544 1544 1544 1545 1546 1546 1547 1549 1550 1551 1552 1553 1555 1556 1557 1558 1560 1561 1563 1564 1566 1567
1542 1543 1551 1559 1558 1559 1559 1575 1578 1577 1575 1572 1571 1569 1567 1565 1563 1561 1558 1555 1552 1550 1547 1545 1543 1542 1541 1540 1540 1540 1540 1541 1542 1543 1544 1546 1547 1548 1549 1551 1553 1554 1556 1557 1559 1561 1562 1564 1565
1541 1544 1551 1559 1561 1560 1562 1576 1579 1578 1575 1573 1572 1570 1568 1565 1563 1560 1557 1554 1551 1548 1546 1543 1541 1539 1538 1536 1535 1535 1536 1536 1537 1539 1540 1541 1542 1544 1545 1547 1549 1551 1552 1554 1556 1558 1560 1562 1563
1548 1547 1553 1559 1565 1563 1568 1576 1579 1578 1576 1574 1572 1570 1567 1565 1562 1559 1556 1553 1550 1547 1544 1541 1539 1536 1535 1533 1532 1531 1531 1531 1531 1533 1534 1536 1537 1539 1541 1542 1544 1546 1548 1550 1552 1555 1556 1559 1560
1549 1550 1555 1563 1567 1568 1571 1575 1577 1578 1576 1574 1572 1569 1567 1565 1562 1559 1555 1551 1548 1545 1542 1539 1536 1534 1532 1530 1528 1527 1526 1526 1526 1527 1528 1530 1532 1534 1535 1537 1539 1541 1543 1545 1548 1550 1553 1555 1557
1552 1554 1559 1566 1568 1568 1572 1575 1576 1577 1576 1575 1573 1570 1567 1564 1560 1557 1553 1550 1546 1542 1539 1536 1533 1531 1528 1526 1525 1523 1522 1521 1521 1522 1523 1524 1526 1528 1530 1532 1534 1536 1538 1541 1543 1546 1548 1551 1553
1556 1558 1560 1565 1569 1569 1571 1575 1574 1575 1576 1575 1574 1571 1568 1564 1560 1556 1552 1548 1544 1540 1536 1533 1530 1527 1525 1523 1521 1520 1518 1517 1517 1517 1518 1519 1520 1522 1524 1526 1528 1530 1533 1535 1538 1541 1543 1546 1548
1560 1564 1564 1564 1564 1566 1570 1567 1574 1574 1574 1574 1573 1570 1568 1564 1560 1556 1551 1546 1542 1538 1534 1530 1527 1524 1522 1520 1518 1516 1515 1514 1514 1513 1513 1514 1515 1516 1518 1520 1523 1525 1528 1530 1533 1535 1538 1541 1543
1563 1565 1563 1562 1562 1564 1566 1564 1572 1572 1574 1574 1573 1571 1567 1564 1560 1555 1550 1545 1540 1535 1531 1527 1524 1521 1519 1517 1515 1513 1512 1511 1510 1509 1509 1509 1510 1510 1512 1514 1517 1520 1522 1524 1527 1530 1532 1535 1538
1565 1564 1563 1561 1559 1566 1570 1568 1574 1576 1577 1575 1573 1570 1567 1563 1559 1555 1550 1545 1539 1534 1529 1525 1522 1519 1516 1514 1512 1510 1509 1507 1506 1505 1505 1505 1505 1506 1507 1509 1511 1514 1516 1518 1521 1524 1527 1529 1532
1562 1560 1560 1560 1561 1568 1572 1572 1579 1578 1578 1577 1574 1571 1567 1563 1559 1554 1549 1544 1539 1533 1529 1524 1521 1517 1514 1512 1510 1508 1506 1505 1503 1502 1502 1502 1502 1502 1503 1504 1506 1509 1511 1513 1516 1519 1521 1523 1526
1565 1561 1562 1561 1560 1568 1573 1574 1578 1579 1578 1577 1574 1571 1567 1563 1559 1554 1549 1544 1539 1534 1529 1524 1520 1517 1514 1511 1509 1507 1505 1503 1501 1500 1499 1499 1499 1499 1500 1501 1502 1504 1506 1509 1511 1513 1516 1518 1521
1563 1563 1565 1562 1564 1567 1571 1574 1576 1577 1576 1575 1573 1570 1567 1564 1559 1555 1550 1545 1540 1535 1530 1525 1522 1518 1515 1512 1509 1507 1505 1502 1500 1499 1498 1498 1498 1498 1498 1498 1499 1501 1503 1505 1507 1509 1511 1514 1516
1569 1568 1564 1563 1567 1567 1573 1575 1577 1575 1575 1574 1573 1570 1568 1564 1560 1556 1551 1546 1541 1537 1532 1528 1523 1520 1516 1513 1510 1507 1505 1503 1501 1499 1498 1498 1497 1497 1497 1497 1498 1499 1500 1502 1503 1505 1507 1509 1512
1570 1570 1568 1567 1568 1569 1575 1579 1576 1577 1577 1575 1573 1571 1568 1565 1561 1557 1553 1548 1544 1539 1535 1530 1526 1522 1519 1515 1512 1509 1506 1504 1502 1501 1500 1499 1498 1498 1497 1497 1497 1497 1498 1500 1501 1502 1504 1506 1508
1573 1573 1570 1568 1571 1571 1572 1579 1576 1577 1577 1575 1573 1571 1568 1565 1562 1558 1554 1550 1546 1542 1538 1534 1530 1525 1522 1518 1514 1511 1509 1507 1505 1503 1502 1501 1500 1499 1498 1498 1498 1498 1498 1499 1499 1500 1502 1504 1506